DW4805 Weather Reports


time (UTC)temp
C
wind
direction
speed
KPH
gust
KPH
rain 1hr
cm
rain 24hr
cm
rain mn
cm
humidity
%
barometer
mb
20260506113052 13 310 11.3 20.9 0.00 0.00 0.00 74 1012.7
20260506111551 13 281 12.9 24.1 0.00 0.00 0.00 75 1012.2
20260506110053 13 311 11.3 19.3 0.00 0.00 0.00 75 1012.1
20260506104553 13 293 11.3 19.3 0.00 0.00 0.00 75 1012.0
20260506103054 13 313 6.4 17.7 0.00 0.00 0.00 75 1011.7
20260506101551 13 294 8.0 17.7 0.00 0.00 0.00 75 1011.4
20260506100052 13 289 11.3 19.3 0.00 0.00 0.00 76 1011.2
20260506094601 13 287 9.7 17.7 0.00 0.00 0.00 76 1011.0
20260506093052 14 273 8.0 17.7 0.00 0.00 0.00 76 1011.0
20260506091550 14 290 11.3 20.9 0.00 0.00 0.00 76 1010.9
20260506090056 14 298 9.7 17.7 0.00 0.00 0.00 76 1011.0
20260506084612 14 289 8.0 22.5 0.00 0.00 0.00 76 1010.8
20260506083056 15 305 4.8 20.9 0.00 0.00 0.00 77 1010.6
20260506081551 15 292 9.7 17.7 0.00 0.00 0.00 77 1010.5
20260506073059 15 286 6.4 14.5 0.00 0.00 0.00 77 1010.1
20260506071553 15 284 3.2 14.5 0.00 0.00 0.00 78 1010.2
20260506061601 16 292 6.4 16.1 0.00 0.00 0.00 77 1010.1
20260506050109 17 315 14.5 24.1 0.00 0.00 0.00 75 1010.3
20260506044555 17 299 8.0 16.1 0.00 0.00 0.00 75 1010.0
20260506043105 18 319 11.3 19.3 0.00 0.00 0.00 74 1009.8
20260506041600 18 317 11.3 22.5 0.00 0.00 0.00 72 1010.0
20260506040105 18 281 4.8 22.5 0.00 0.00 0.00 72 1009.9
20260506034605 19 302 11.3 22.5 0.00 0.00 0.00 71 1009.6
20260506033103 19 282 11.3 20.9 0.00 0.00 0.00 70 1009.3
20260506031559 20 337 9.7 17.7 0.00 0.00 0.00 70 1008.8
20260506030056 20 323 11.3 19.3 0.00 0.00 0.00 69 1008.3
20260506024557 20 325 9.7 24.1 0.00 0.00 0.00 69 1008.3
20260506023051 21 281 8.0 22.5 0.00 0.00 0.00 69 1007.9
20260506021602 21 317 12.9 27.4 0.00 0.00 0.00 68 1007.9
20260506020050 21 290 11.3 19.3 0.00 0.00 0.00 67 1007.4
20260506014553 22 286 11.3 24.1 0.00 0.00 0.00 66 1006.9
20260506013103 22 292 8.0 14.5 0.00 0.00 0.00 66 1006.6
20260506011603 22 324 8.0 16.1 0.00 0.00 0.00 65 1006.1
20260506010053 23 300 6.4 16.1 0.00 0.00 0.00 65 1005.9
20260506004555 23 285 11.3 25.7 0.00 0.00 0.00 63 1005.8
20260506003055 23 306 8.0 19.3 0.00 0.00 0.00 60 1005.4
20260506001555 24 290 4.8 19.3 0.00 0.00 0.00 61 1005.6
20260506000054 25 294 6.4 16.1 0.00 0.00 0.00 60 1005.6
20260505234605 25 286 9.7 22.5 0.00 0.00 0.00 60 1005.3
20260505233051 26 286 9.7 20.9 0.00 0.00 0.00 60 1004.9
20260505231606 27 315 12.9 22.5 0.00 0.00 0.00 59 1004.7
20260505230054 28 321 6.4 20.9 0.00 0.00 0.00 51 1004.5
20260505224556 28 290 9.7 22.5 0.00 0.00 0.00 49 1004.4
20260505223104 30 313 8.0 14.5 0.00 0.00 0.00 49 1004.2
20260505221600 30 282 3.2 6.4 0.00 0.00 0.00 51 1004.0
20260505220056 30 296 1.6 6.4 0.00 0.00 0.00 52 1003.8
20260505214616 31 295 1.6 4.8 0.00 0.00 0.00 49 1004.0
20260505213102 31 286 0.0 3.2 0.00 0.00 0.00 48 1004.0
20260505211603 32 318 0.0 4.8 0.00 0.00 0.00 47 1004.0
20260505210052 32 173 4.8 11.3 0.00 0.00 0.00 45 1004.3
20260505204551 32 149 3.2 11.3 0.00 0.00 0.00 47 1004.6
20260505203054 32 141 3.2 12.9 0.00 0.00 0.00 46 1004.6
20260505201557 32 283 1.6 11.3 0.00 0.00 0.00 47 1004.9
20260505200059 31 154 3.2 11.3 0.00 0.00 0.00 50 1005.0
20260505194557 32 175 4.8 17.7 0.00 0.00 0.00 50 1005.0
20260505193054 31 175 6.4 19.3 0.00 0.00 0.00 52 1005.1
20260505191552 31 134 8.0 16.1 0.00 0.00 0.00 55 1005.0
20260505190054 30 125 8.0 19.3 0.00 0.00 0.00 58 1005.0
20260505184553 30 245 8.0 20.9 0.00 0.00 0.00 56 1005.1
20260505183105 30 184 8.0 29.0 0.00 0.00 0.00 58 1005.2
20260505181552 29 186 6.4 25.7 0.00 0.00 0.00 62 1005.4
20260505180056 28 150 11.3 24.1 0.00 0.00 0.00 67 1005.5
20260505174559 27 129 9.7 29.0 0.00 0.00 0.00 67 1005.6
20260505173050 27 119 11.3 22.5 0.00 0.00 0.00 69 1005.5
20260505171553 26 150 11.3 20.9 0.00 0.00 0.00 70 1005.7
20260505170055 26 143 11.3 22.5 0.00 0.00 0.00 70 1005.6
20260505164555 26 180 9.7 22.5 0.00 0.00 0.00 71 1005.6
20260505163050 26 153 12.9 30.6 0.00 0.00 0.00 72 1005.4
20260505161600 26 147 11.3 27.4 0.00 0.00 0.00 72 1005.3
20260505153102 24 149 11.3 27.4 0.00 0.00 0.00 77 1005.1
20260505151604 23 177 9.7 29.0 0.00 0.00 0.00 79 1005.2
20260505140110 22 222 11.3 30.6 0.00 0.00 0.00 82 1005.2
20260505130111 21 152 11.3 22.5 0.00 0.00 0.00 85 1005.0
20260505124614 21 146 9.7 22.5 0.00 0.00 0.00 86 1005.0
20260505123117 20 149 8.0 20.9 0.00 0.00 0.00 86 1004.9
20260505121559 20 152 4.8 19.3 0.00 0.00 0.00 86 1004.7
20260505120058 21 115 9.7 24.1 0.00 0.00 0.00 86 1004.6
20260505114602 20 119 11.3 19.3 0.00 0.00 0.00 86 1004.3